TimeCST,TemperatureF,Dew PointF,Humidity,Sea Level PressureIn,VisibilityMPH,Wind Direction,Wind SpeedMPH,Gust SpeedMPH,PrecipitationIn,Events,Conditions,WindDirDegrees,DateUTC
12:56 AM,27.1,13.1,56,30.29,10.0,Calm,Calm,-,N/A,,Clear,0,2012-12-22 06:56:00
1:56 AM,27.1,13.1,56,30.30,10.0,Calm,Calm,-,N/A,,Clear,0,2012-12-22 07:56:00
2:56 AM,25.2,15.1,66,30.31,10.0,Calm,Calm,-,N/A,,Clear,0,2012-12-22 08:56:00
3:56 AM,25.2,13.1,60,30.32,10.0,NW,6.9,-,N/A,,Clear,320,2012-12-22 09:56:00
4:56 AM,24.1,14.0,65,30.34,10.0,Calm,Calm,-,N/A,,Clear,0,2012-12-22 10:56:00
5:56 AM,23.0,15.1,72,30.35,10.0,Calm,Calm,-,N/A,,Clear,0,2012-12-22 11:56:00
6:56 AM,20.1,17.1,88,30.37,10.0,Calm,Calm,-,N/A,,Clear,0,2012-12-22 12:56:00
7:56 AM,24.1,19.0,81,30.38,10.0,Calm,Calm,-,N/A,,Clear,0,2012-12-22 13:56:00
8:56 AM,32.0,16.2,52,30.39,10.0,Calm,Calm,-,N/A,,Clear,0,2012-12-22 14:56:00
9:56 AM,34.9,15.1,44,30.36,10.0,Calm,Calm,-,N/A,,Clear,0,2012-12-22 15:56:00
10:56 AM,37.9,17.1,43,30.34,10.0,Calm,Calm,-,N/A,,Clear,0,2012-12-22 16:56:00
11:56 AM,41.0,17.1,38,30.30,10.0,Calm,Calm,-,N/A,,Clear,0,2012-12-22 17:56:00
12:56 PM,45.0,17.1,33,30.28,10.0,Calm,Calm,-,N/A,,Clear,0,2012-12-22 18:56:00
1:56 PM,46.9,17.1,30,30.26,10.0,Variable,5.8,-,N/A,,Clear,0,2012-12-22 19:56:00
2:56 PM,47.8,10.0,22,30.25,10.0,Calm,Calm,-,N/A,,Clear,0,2012-12-22 20:56:00
3:56 PM,46.9,17.1,30,30.24,10.0,Calm,Calm,-,N/A,,Clear,0,2012-12-22 21:56:00
4:56 PM,38.8,20.1,47,30.24,10.0,Calm,Calm,-,N/A,,Clear,0,2012-12-22 22:56:00
5:56 PM,34.0,22.1,62,30.23,10.0,Calm,Calm,-,N/A,,Clear,0,2012-12-22 23:56:00
6:56 PM,32.0,24.1,73,30.23,10.0,Calm,Calm,-,N/A,,Clear,0,2012-12-23 00:56:00
7:56 PM,32.9,20.1,59,30.21,10.0,Calm,Calm,-,N/A,,Clear,0,2012-12-23 01:56:00
8:56 PM,29.1,21.0,72,30.19,10.0,Calm,Calm,-,N/A,,Clear,0,2012-12-23 02:56:00
9:56 PM,30.0,22.1,72,30.17,10.0,Calm,Calm,-,N/A,,Clear,0,2012-12-23 03:56:00
10:56 PM,32.0,22.1,67,30.16,10.0,Calm,Calm,-,N/A,,Clear,0,2012-12-23 04:56:00
11:56 PM,32.0,22.1,67,30.14,10.0,Calm,Calm,-,N/A,,Clear,0,2012-12-23 05:56:00